Tracking 31027 objects as of 18-Jul-2025
HD Live streaming from Space Station
objects crossing your sky now

MOLNIYA 1-80

Track MOLNIYA 1-80 now!
MOLNIYA 1-80 is classified as:


NORAD ID: 21118
Int'l Code: 1991-012A
Perigee: 3,186.6 km
Apogee: 36,380.6 km
Inclination: 64.9 °
Period: 701.6 minutes
Semi major axis: 26154 km
RCS: 6.3095 m2 (large)
Launch date: February 15, 1991
Source: Commonwealth of Independent States (former USSR) (CIS)
Launch site: PLESETSK MISSILE AND SPACE COMPLEX (PKMTR)
Your satellite tracking list
Your tracking list is empty




NASA's NSSDC Master Catalog

Two Line Element Set (TLE):
1 21118U 91012A   25199.11579005 -.00000484  00000-0  00000-0 0  9997
2 21118  64.9116 223.3629 6345734 261.5522  26.8715  2.05249344254108
Source of the keplerian elements: AFSPC